Orbital Elements at Epoch 2459200.5 (2020-Dec-17.0) TDB
Reference: JPL 15 (heliocentric ecliptic J2000)
Element | Value | Uncertainty (1-sigma) | Units |
e | .184578789303466 | 4.4699e-08 | |
a | 2.629668668953864 | 1.7327e-08 | au |
q | 2.144287609769103 | 1.1774e-07 | au |
i | 33.76734180196403 | 4.9127e-06 | deg |
node | 163.9296247354416 | 1.0655e-05 | deg |
peri | 24.49750005177939 | 1.9669e-05 | deg |
M | 255.6189758084877 | 1.9244e-05 | deg |
tp | 2459652.115696500481 (2022-Mar-13.61569650) | 8.5865e-05 | TDB |
period | 1557.578611624636 4.26 | 1.5395e-05 4.215e-08 | d yr |
n | .2311279811582037 | 2.2844e-09 | deg/d |
Q | 3.115049728138625 | 2.0525e-08 | au |
|
| | Orbit Determination Parameters
Additional Information
|